Location: Handeloh
(53.2500°N, 9.8330°E)
Time: 01:46:42
(UTC+01:00)

A-11 Canister half - Visible Passes

Search period start: 13 November 2019 00:00
Search period end: 23 November 2019 00:00
Orbit: 1527 x 1682 km, 47.3° (Epoch: 12 November)

Date Brightness Start Highest point End Pass type
(mag) Time Alt. Az. Time Alt. Az. Time Alt. Az.
13 Nov 9.5 17:52:52 10° W 18:02:10 56° SSW 18:11:14 10° ESE visible
13 Nov 10.2 19:57:55 10° W 20:05:46 30° SW 20:10:15 21° S visible
14 Nov 9.6 17:31:14 10° W 17:40:35 56° SSW 17:49:40 10° ESE visible
14 Nov 10.2 19:36:14 10° W 19:44:14 32° SW 19:50:17 16° SSE visible
15 Nov 9.6 17:09:35 10° W 17:18:59 57° SSW 17:28:06 10° ESE visible
15 Nov 10.2 19:14:34 10° W 19:22:41 33° SW 19:30:28 11° SSE visible
16 Nov 9.7 16:47:56 10° W 16:57:23 58° SSW 17:06:32 10° ESE visible
16 Nov 10.2 18:52:54 10° W 19:01:08 34° SW 19:09:12 10° SSE visible
16 Nov 11.1 21:01:52 10° WSW 21:03:37 11° WSW 21:05:22 10° SW visible
17 Nov 10.3 18:31:13 10° W 18:39:35 35° SW 18:47:45 10° SSE visible
17 Nov 11.1 20:39:23 10° WSW 20:42:08 12° WSW 20:44:52 10° SW visible
18 Nov 10.3 18:09:32 10° W 18:18:02 37° SW 18:26:17 10° SSE visible
18 Nov 11.1 20:17:11 10° WSW 20:20:38 12° SW 20:24:04 10° SSW visible
19 Nov 10.3 17:47:52 10° W 17:56:28 38° SSW 18:04:49 10° SSE visible
19 Nov 11.2 19:55:07 10° W 19:59:08 13° SW 20:03:07 10° SSW visible
20 Nov 10.3 17:26:12 10° W 17:34:54 39° SSW 17:43:21 10° SSE visible
20 Nov 11.2 19:33:08 10° W 19:37:38 14° SW 19:42:05 10° SSW visible
21 Nov 10.3 17:04:32 10° W 17:13:20 40° SSW 17:21:52 10° SSE visible
21 Nov 11.2 19:11:12 10° W 19:16:07 15° SW 19:21:00 10° SSW visible
22 Nov 10.4 16:42:52 10° W 16:51:45 42° SSW 17:00:22 10° SE visible
22 Nov 11.2 18:49:19 10° W 18:54:37 16° SW 18:59:51 10° SSW visible
